Time[GMT],air_temperature[C](-3m),wind_speed[m/s](-4m),wind_gust[m/s](-4m),visibility[m](-3m),barometric_pressure[millibars](-3m),wind_2_direction[degrees_true](-4m),wind_2_gust[m/s](-4m),wind_2_percent_good[m/s](-4m),wind_2_speed[m/s](-4m),wind_direction[degrees_true](-4m)
2006-12-06 03:30,-1.7,,,2914,1025.91,311.20,8.40,1.00,5.47,
2006-12-06 04:00,-1.7,,,2965,1026.15,304.20,7.01,1.00,5.32,
2006-12-06 04:30,-1.3,,,2911,1026.15,309.00,9.21,1.00,6.45,
2006-12-06 05:00,-1.2,,,2965,1026.34,304.00,10.17,1.00,6.96,
2006-12-06 05:30,-1.2,,,2924,1026.58,310.90,9.17,1.00,7.15,
2006-12-06 06:00,-1.4,,,2965,1026.95,312.60,10.49,1.00,7.54,
2006-12-06 06:30,-1.4,,,2904,1027.20,316.10,8.55,1.00,6.90,
2006-12-06 07:00,-1.7,,,2965,1027.51,316.70,8.12,1.00,6.40,
2006-12-06 07:30,-1.8,,,2910,1027.75,318.60,8.15,1.00,6.09,
2006-12-06 08:00,-1.8,,,2965,1027.81,320.20,7.25,1.00,5.45,
2006-12-06 08:30,-1.9,,,2909,1027.94,320.70,6.15,1.00,4.66,
2006-12-06 09:00,-2.0,,,2965,1028.12,331.10,5.32,1.00,3.94,
2006-12-06 09:30,-1.9,,,2922,1028.06,343.96,5.75,1.00,3.91,
2006-12-06 10:00,-1.4,,,2965,1028.18,348.91,3.98,1.00,2.69,
2006-12-06 10:30,-1.4,,,2930,1028.43,305.40,2.95,1.00,2.22,
2006-12-06 11:00,-1.3,,,2965,1028.68,278.30,2.57,1.00,1.14,
2006-12-06 11:30,-1.4,,,2925,1028.61,178.40,1.29,1.00,0.68,
2006-12-06 12:00,-0.9,,,2965,1028.80,217.10,3.34,1.00,1.97,
2006-12-06 12:30,-0.3,,,2937,1028.61,161.10,4.44,1.00,2.36,
2006-12-06 13:00,0.1,,,2965,1028.49,169.40,5.58,1.00,3.23,
2006-12-06 13:30,0.5,,,2956,1028.61,151.00,6.53,1.00,4.49,
2006-12-06 14:00,1.3,,,2957,1028.12,156.60,7.49,1.00,5.53,
2006-12-06 14:30,1.9,,,2945,1028.12,168.80,7.49,1.00,5.49,
2006-12-06 15:00,2.6,,,2965,1027.44,181.40,9.09,1.00,7.05,
2006-12-06 15:30,2.8,,,2929,1027.08,205.00,9.49,1.00,6.53,
2006-12-06 16:00,3.3,,,2965,1026.15,204.00,11.11,1.00,8.25,
2006-12-06 16:30,3.7,,,2904,1025.78,220.80,12.98,1.00,9.57,
2006-12-06 17:00,4.2,,,2959,1025.11,216.50,14.14,1.00,11.02,
2006-12-06 17:30,4.5,,,2870,1024.61,208.60,13.99,1.00,11.33,
2006-12-06 18:00,4.6,,,2963,1024.43,212.70,13.76,1.00,11.08,
2006-12-06 18:30,4.7,,,2879,1023.88,197.90,14.01,1.00,10.99,
2006-12-06 19:00,4.8,,,2964,1023.45,203.20,14.93,1.00,11.89,
2006-12-06 19:30,4.9,,,2877,1023.51,213.20,14.22,1.00,11.47,
2006-12-06 20:00,5.2,,,2964,1023.32,202.70,14.67,1.00,12.28,
2006-12-06 20:30,5.5,,,2868,1022.77,198.70,14.84,1.00,12.65,
2006-12-06 21:00,5.9,,,2921,1022.40,198.30,16.01,1.00,13.40,
2006-12-06 21:30,5.9,,,2579,1022.46,202.20,14.84,1.00,12.06,
2006-12-06 22:00,6.5,,,2818,1021.73,204.00,15.48,1.00,12.66,
2006-12-06 22:30,6.9,,,2655,1021.17,220.20,16.86,1.00,12.86,
2006-12-06 23:00,7.2,,,2766,1020.80,198.60,16.09,1.00,13.50,
2006-12-06 23:30,7.5,,,2712,1020.62,193.70,16.61,1.00,13.13,
2006-12-07 00:00,7.6,,,2728,1020.62,201.20,16.88,1.00,13.44,
2006-12-07 00:30,7.8,,,2421,1020.25,214.60,17.61,1.00,13.90,
2006-12-07 01:00,8.2,,,2731,1019.88,218.10,17.53,1.00,13.09,
2006-12-07 01:30,8.5,,,2620,1019.58,214.60,17.22,1.00,13.84,
2006-12-07 02:00,8.6,,,2697,1019.51,200.90,18.04,1.00,14.17,
2006-12-07 02:30,8.7,,,2619,1019.45,219.00,16.24,1.00,12.68,
2006-12-07 03:00,8.9,,,2597,1019.27,227.90,15.80,1.00,13.32,
2006-12-07 03:30,8.9,,,2640,1019.15,220.30,14.81,1.00,12.28,
2006-12-07 04:00,9.0,,,2733,1018.53,225.10,15.04,1.00,12.63,
2006-12-07 04:30,9.1,,,2515,1018.29,219.90,15.13,1.00,12.93,
2006-12-07 05:00,9.1,,,2516,1017.92,218.40,14.94,1.00,11.96,
2006-12-07 05:30,9.2,,,2645,1017.61,220.40,15.00,1.00,12.05,
2006-12-07 06:00,9.3,,,2715,1017.30,217.50,14.68,1.00,10.88,
2006-12-07 06:30,9.4,,,2598,1017.06,218.80,13.18,1.00,10.44,
2006-12-07 07:00,9.5,,,2700,1016.69,216.00,12.45,1.00,10.63,
2006-12-07 07:30,9.5,,,2601,1016.38,207.70,12.82,1.00,9.67,
2006-12-07 08:00,9.5,,,2634,1015.65,203.90,12.09,1.00,9.29,
2006-12-07 08:30,9.7,,,2588,1015.10,196.30,11.89,1.00,9.79,
2006-12-07 09:00,9.8,,,2621,1014.67,191.70,11.05,1.00,9.30,
2006-12-07 09:30,9.8,,,2565,1014.42,199.70,10.99,1.00,8.73,
2006-12-07 10:00,10.0,,,2622,1013.87,194.70,11.64,1.00,9.56,
2006-12-07 10:30,9.9,,,2445,1013.63,193.10,12.50,1.00,9.65,
2006-12-07 11:00,9.6,,,2052,1013.56,196.40,12.90,1.00,10.42,
2006-12-07 11:30,9.4,,,1721,1013.20,205.20,11.55,1.00,9.23,
2006-12-07 12:00,9.3,,,2913,1012.65,209.50,11.75,1.00,9.93,
2006-12-07 12:30,9.4,,,2804,1013.01,201.50,11.80,1.00,10.12,
2006-12-07 13:00,9.5,,,2710,1012.83,223.30,13.16,1.00,10.34,
2006-12-07 13:30,9.6,,,2814,1012.28,213.20,9.67,1.00,8.16,
2006-12-07 14:00,9.8,,,2912,1012.52,209.40,9.63,1.00,8.32,
2006-12-07 14:30,9.9,,,2672,1012.16,219.30,9.71,1.00,7.79,
2006-12-07 15:00,9.9,,,2734,1011.67,239.80,8.44,1.00,6.94,
2006-12-07 15:30,9.6,,,2510,1011.05,251.90,8.11,1.00,7.09,
2006-12-07 16:00,9.8,,,2659,1010.75,229.40,7.38,1.00,6.06,
2006-12-07 16:30,9.6,,,2625,1010.20,224.40,6.90,1.00,5.64,
2006-12-07 17:00,9.6,,,2835,1009.89,225.20,7.60,1.00,6.14,
2006-12-07 17:30,9.4,,,2819,1009.71,233.70,7.74,1.00,6.43,
2006-12-07 18:00,9.5,,,2854,1009.65,226.10,8.17,1.00,6.72,
2006-12-07 18:30,9.2,,,2914,1009.52,237.60,8.16,1.00,6.90,
2006-12-07 19:00,9.3,,,2941,1009.22,228.50,7.03,1.00,5.90,
2006-12-07 19:30,9.2,,,2129,1009.03,230.20,7.90,1.00,6.40,
2006-12-07 20:00,9.1,,,2886,1009.22,229.40,7.92,1.00,6.88,
2006-12-07 20:30,9.1,,,2724,1009.28,222.80,7.36,1.00,6.21,
2006-12-07 21:00,9.0,,,2963,1009.58,224.30,7.78,1.00,6.22,
2006-12-07 21:30,9.0,,,2912,1009.34,230.40,7.68,1.00,5.66,
2006-12-07 22:00,8.9,,,2965,1009.28,231.30,6.53,1.00,5.42,
2006-12-07 22:30,8.8,,,2964,1009.16,246.50,5.91,1.00,4.95,
2006-12-07 23:00,8.7,,,2965,1009.28,252.10,5.84,1.00,4.81,
2006-12-07 23:30,8.6,,,2913,1009.03,258.90,6.39,1.00,5.27,
2006-12-08 00:00,8.4,,,2965,1008.54,273.40,5.72,1.00,4.83,
2006-12-08 00:30,8.2,,,2910,1007.99,283.80,6.36,1.00,5.35,
2006-12-08 01:00,7.9,,,2963,1007.50,303.80,5.37,1.00,4.53,
2006-12-08 01:30,7.6,,,2912,1007.20,323.80,4.44,1.00,3.79,
2006-12-08 02:00,7.4,,,2956,1006.77,344.92,4.86,1.00,4.13,
2006-12-08 02:30,7.4,,,2912,1006.16,16.14,6.74,1.00,5.62,
2006-12-08 03:00,7.4,,,2965,1005.55,21.67,7.51,1.00,6.19,
2006-12-08 03:30,7.3,,,2901,1005.12,35.09,7.83,1.00,6.44,
2006-12-08 04:00,7.4,,,2965,1005.06,42.94,7.33,1.00,6.18,
2006-12-08 04:30,7.0,,,2900,1004.57,27.15,7.39,1.00,6.18,
2006-12-08 05:00,7.2,,,2963,1004.20,33.72,6.50,1.00,5.34,
2006-12-08 05:30,6.2,,,2887,1003.90,7.70,6.25,1.00,5.14,
2006-12-08 06:00,6.1,,,2962,1003.59,16.48,7.46,1.00,6.19,
2006-12-08 06:30,5.6,,,2865,1003.77,349.86,9.78,1.00,7.99,
2006-12-08 07:00,4.9,,,2954,1003.16,348.62,11.54,1.00,9.40,
2006-12-08 07:30,4.4,,,2842,1002.92,355.75,13.02,1.00,10.31,
2006-12-08 08:00,3.8,,,2730,1002.43,349.37,13.55,1.00,10.31,
2006-12-08 08:30,3.6,,,2665,1002.55,328.50,12.25,1.00,10.00,
2006-12-08 09:00,2.7,,,2244,1002.68,329.10,12.30,1.00,9.55,
2006-12-08 09:30,2.6,,,2680,1002.06,341.70,13.67,1.00,10.61,
2006-12-08 10:00,2.5,,,2805,1001.64,339.50,12.24,1.00,9.54,
2006-12-08 10:30,2.0,,,2801,1001.64,331.70,13.13,1.00,10.39,
2006-12-08 11:00,1.6,,,2917,1001.45,348.04,14.38,1.00,11.03,
2006-12-08 11:30,1.6,,,2655,1002.00,329.70,12.88,1.00,9.36,
2006-12-08 12:00,1.3,,,2781,1001.45,339.70,12.62,1.00,9.46,
2006-12-08 12:30,0.8,,,2634,1001.33,334.10,12.04,1.00,9.25,
2006-12-08 13:00,0.3,,,2897,1001.52,337.00,13.18,1.00,11.09,
2006-12-08 13:30,0.1,,,2405,1001.39,346.14,15.85,1.00,11.89,
2006-12-08 14:00,0.1,,,2224,1001.39,337.70,13.92,1.00,11.61,
2006-12-08 14:30,-0.0,,,2617,1001.21,350.45,15.57,1.00,12.39,
2006-12-08 15:00,-0.1,,,2826,1001.15,346.68,15.62,1.00,13.38,
2006-12-08 15:30,-0.4,,,2267,1001.09,328.50,16.61,1.00,12.41,
2006-12-08 16:00,-0.5,,,2175,1001.09,331.10,16.88,1.00,12.60,
2006-12-08 16:30,-0.8,,,2546,1001.09,326.10,14.22,1.00,11.47,
2006-12-08 17:00,-0.5,,,2603,1001.03,332.40,16.84,1.00,12.96,
2006-12-08 17:30,-1.0,,,2378,1001.39,343.52,18.69,1.00,15.48,
2006-12-08 18:00,-1.2,,,1857,1001.82,334.90,18.94,1.00,14.21,
2006-12-08 18:30,-1.7,,,2618,1002.61,349.13,20.95,1.00,17.36,
2006-12-08 19:00,-2.3,,,2937,1003.47,336.30,18.98,1.00,14.88,
2006-12-08 19:30,-2.0,,,2965,1004.20,329.40,16.43,1.00,12.98,
2006-12-08 20:00,-2.0,,,2965,1005.12,321.80,15.57,1.00,12.91,
2006-12-08 20:30,-2.3,,,2954,1006.22,326.30,18.19,1.00,14.02,
2006-12-08 21:00,-2.4,,,2965,1007.26,316.50,15.00,1.00,13.06,
2006-12-08 21:30,-2.7,,,2843,1008.42,311.70,15.26,1.00,12.83,
2006-12-08 22:00,-2.9,,,2965,1009.58,315.00,15.36,1.00,12.67,
2006-12-08 22:30,-3.0,,,2965,1010.75,315.70,16.01,1.00,12.08,
2006-12-08 23:00,-3.4,,,2965,1011.85,310.20,14.08,1.00,11.49,
2006-12-08 23:30,-3.5,,,2964,1013.01,311.80,14.02,1.00,11.55,
2006-12-09 00:00,-3.8,,,2965,1013.81,308.30,15.26,1.00,11.80,
2006-12-09 00:30,-3.9,,,2965,1014.36,315.60,15.70,1.00,12.51,
2006-12-09 01:00,-4.3,,,2965,1015.22,317.70,18.31,1.00,13.13,
2006-12-09 01:30,-4.6,,,2941,1015.77,318.30,16.79,1.00,12.39,
2006-12-09 02:00,-4.7,,,2965,1016.08,318.30,16.55,1.00,12.45,
2006-12-09 02:30,-4.7,,,2910,1016.32,313.80,14.46,1.00,11.71,
2006-12-09 03:00,-4.3,,,2965,1016.81,305.40,14.89,1.00,11.02,
2006-12-09 03:30,-4.2,,,2856,1017.06,313.30,15.68,1.00,11.89,
2006-12-09 04:00,-4.0,,,2965,1017.30,304.70,12.06,1.00,9.97,
2006-12-09 04:30,-4.2,,,2873,1017.80,288.90,11.85,1.00,9.71,
2006-12-09 05:00,-4.0,,,2965,1017.37,297.60,15.29,1.00,10.84,
2006-12-09 05:30,-3.5,,,2885,1017.80,300.80,13.36,1.00,10.99,
2006-12-09 06:00,-3.7,,,2965,1017.98,288.90,12.61,1.00,10.00,
2006-12-09 06:30,-3.7,,,2848,1018.47,290.80,12.00,1.00,9.51,
2006-12-09 07:00,-3.3,,,2965,1018.78,284.00,11.60,1.00,8.33,
2006-12-09 07:30,-3.3,,,2834,1019.21,291.40,12.17,1.00,9.77,
2006-12-09 08:00,-3.3,,,2965,1019.21,280.80,11.82,1.00,8.90,
2006-12-09 08:30,-3.1,,,2820,1019.08,283.90,9.66,1.00,7.98,
2006-12-09 09:00,-2.6,,,2965,1019.27,271.70,10.31,1.00,7.70,
2006-12-09 09:30,-1.9,,,2820,1019.27,275.00,11.39,1.00,8.91,
2006-12-09 10:00,-1.6,,,2965,1019.76,269.30,10.39,1.00,8.24,
2006-12-09 10:30,-1.1,,,2806,1020.01,278.40,11.92,1.00,9.30,
2006-12-09 11:00,-0.8,,,2965,1020.13,280.90,11.98,1.00,8.70,
2006-12-09 11:30,-0.6,,,2795,1020.25,281.30,11.32,1.00,8.82,
2006-12-09 12:00,0.3,,,2965,1019.94,284.80,10.69,1.00,9.09,
2006-12-09 12:30,1.4,,,2816,1019.94,252.70,10.68,1.00,8.88,
2006-12-09 13:00,1.7,,,2964,1020.31,236.50,12.85,1.00,10.05,
2006-12-09 13:30,1.8,,,2819,1020.62,266.50,11.22,1.00,9.30,
2006-12-09 14:00,1.9,,,2965,1020.80,255.80,11.00,1.00,8.65,
2006-12-09 14:30,2.0,,,2832,1020.99,248.60,11.71,1.00,9.17,
2006-12-09 15:00,1.9,,,2960,1020.99,267.50,11.81,1.00,8.47,
2006-12-09 15:30,2.2,,,2791,1020.74,259.80,10.90,1.00,8.37,
2006-12-09 16:00,2.3,,,2954,1020.13,260.50,11.39,1.00,8.89,
2006-12-09 16:30,2.4,,,2807,1019.82,244.90,11.42,1.00,9.25,
2006-12-09 17:00,2.3,,,2950,1019.70,255.70,11.04,1.00,9.10,
2006-12-09 17:30,2.7,,,2804,1019.45,258.10,11.69,1.00,9.42,
2006-12-09 18:00,2.9,,,2963,1019.51,256.90,11.58,1.00,8.89,
2006-12-09 18:30,3.0,,,2713,1019.45,276.90,10.40,1.00,7.40,
2006-12-09 19:00,3.0,,,2965,1019.27,262.50,9.25,1.00,7.51,
2006-12-09 19:30,3.2,,,2832,1019.45,270.70,9.51,1.00,7.26,
2006-12-09 20:00,3.4,,,2965,1019.82,268.60,9.09,1.00,7.38,
2006-12-09 20:30,3.5,,,2834,1020.19,272.30,9.04,1.00,7.17,
2006-12-09 21:00,3.5,,,2965,1020.31,289.80,8.27,1.00,6.76,
2006-12-09 21:30,3.5,,,2965,1020.56,289.70,7.95,1.00,5.92,
2006-12-09 22:00,3.4,,,2965,1020.44,282.00,6.33,1.00,4.66,
2006-12-09 22:30,3.5,,,2864,1020.87,266.00,5.82,1.00,4.23,
2006-12-09 23:00,3.6,,,2965,1020.80,237.20,6.03,1.00,4.28,
2006-12-09 23:30,3.8,,,2892,1020.68,225.70,6.81,1.00,4.93,
2006-12-10 00:00,4.1,,,2965,1020.74,223.90,8.94,1.00,7.19,
2006-12-10 00:30,4.4,,,2897,1020.74,231.70,9.44,1.00,8.05,
2006-12-10 01:00,4.4,,,2965,1020.31,228.40,10.94,1.00,8.72,
2006-12-10 01:30,4.6,,,2856,1020.01,240.60,11.86,1.00,9.23,
2006-12-10 02:00,4.8,,,2965,1020.25,249.00,12.55,1.00,9.84,
2006-12-10 02:30,4.9,,,2824,1020.01,247.80,13.39,1.00,9.99,
2006-12-10 03:00,5.1,,,2918,1019.94,244.60,12.95,1.00,10.82,
2006-12-10 03:30,5.3,,,2798,1019.70,245.20,13.71,1.00,11.16,
2006-12-10 04:00,5.2,,,2930,1019.39,251.10,13.46,1.00,10.12,
2006-12-10 04:30,5.2,,,2791,1018.78,241.50,11.99,1.00,9.88,
2006-12-10 05:00,5.5,,,2922,1018.72,256.90,13.18,1.00,10.79,
2006-12-10 05:30,5.8,,,2782,1018.41,243.60,12.30,1.00,10.41,
2006-12-10 06:00,5.7,,,2920,1018.04,242.90,11.86,1.00,9.70,
2006-12-10 06:30,5.8,,,2780,1017.86,242.30,12.65,1.00,10.53,
2006-12-10 07:00,5.9,,,2915,1017.80,254.20,12.27,1.00,10.04,
2006-12-10 07:30,6.0,,,2760,1017.30,245.00,11.24,1.00,9.18,
2006-12-10 08:00,6.1,,,2906,1016.94,237.40,12.91,1.00,10.45,
2006-12-10 08:30,6.1,,,2769,1016.88,246.60,11.43,1.00,9.58,
2006-12-10 09:00,6.2,,,2872,1016.75,247.70,13.12,1.00,10.47,
2006-12-10 09:30,6.4,,,2743,1017.12,250.30,13.18,1.00,10.12,
2006-12-10 10:00,6.3,,,2896,1016.88,253.80,11.18,1.00,9.30,
2006-12-10 10:30,6.5,,,2799,1017.06,252.20,12.68,1.00,9.68,
2006-12-10 11:00,6.6,,,2891,1017.06,244.80,13.24,1.00,10.20,
2006-12-10 11:30,6.7,,,2782,1017.30,254.10,13.16,1.00,10.85,
2006-12-10 12:00,6.7,,,2902,1017.06,256.90,13.90,1.00,10.90,
2006-12-10 12:30,6.7,,,2725,1017.49,251.30,12.99,1.00,10.28,
2006-12-10 13:00,6.7,,,1128,1017.49,256.70,13.02,1.00,10.83,
2006-12-10 13:30,6.6,,,2797,1017.55,257.10,12.22,1.00,10.06,
2006-12-10 14:00,6.6,,,2484,1017.67,258.90,12.56,1.00,10.31,
2006-12-10 14:30,6.2,,,2829,1017.80,271.30,10.15,1.00,8.22,
2006-12-10 15:00,6.3,,,2170,1017.55,262.00,11.54,1.00,9.54,
2006-12-10 15:30,6.4,,,1669,1017.30,261.00,11.99,1.00,10.41,
2006-12-10 16:00,6.1,,,2836,1016.88,261.10,10.63,1.00,8.96,
2006-12-10 16:30,6.1,,,2845,1016.75,265.10,10.02,1.00,8.53,
2006-12-10 17:00,6.3,,,2739,1016.69,266.80,8.71,1.00,7.28,
2006-12-10 17:30,6.2,,,2563,1016.63,263.20,8.39,1.00,6.62,
2006-12-10 18:00,6.3,,,2784,1016.69,259.00,8.08,1.00,6.58,
2006-12-10 18:30,6.4,,,2687,1016.69,260.60,8.39,1.00,7.00,
2006-12-10 19:00,6.7,,,2754,1016.75,267.90,8.55,1.00,6.95,
2006-12-10 19:30,7.0,,,2518,1016.88,262.60,8.53,1.00,7.18,
2006-12-10 20:00,7.1,,,2480,1017.18,285.40,9.19,1.00,7.56,
2006-12-10 20:30,7.1,,,2617,1017.49,274.30,8.89,1.00,7.49,
2006-12-10 21:00,6.9,,,2965,1017.92,278.50,8.18,1.00,6.82,
2006-12-10 21:30,7.0,,,2892,1018.53,278.60,7.58,1.00,6.04,
2006-12-10 22:00,6.9,,,2965,1018.96,277.20,7.62,1.00,6.39,
2006-12-10 22:30,6.9,,,2862,1019.51,277.70,7.67,1.00,6.37,
2006-12-10 23:00,6.9,,,2965,1020.01,282.20,7.39,1.00,5.76,
2006-12-10 23:30,7.0,,,2884,1020.37,291.30,7.17,1.00,6.15,
2006-12-11 00:00,6.9,,,2965,1020.93,304.30,7.50,1.00,6.35,
2006-12-11 00:30,6.7,,,2894,1021.23,307.20,6.81,1.00,5.60,
2006-12-11 01:00,6.4,,,2965,1021.66,320.90,7.87,1.00,6.40,
2006-12-11 01:30,6.2,,,2894,1022.03,314.80,9.31,1.00,6.68,
2006-12-11 02:00,6.1,,,2965,1021.91,318.70,8.88,1.00,7.22,
2006-12-11 02:30,6.0,,,2852,1021.91,317.30,8.41,1.00,6.97,
2006-12-11 03:00,5.9,,,2965,1021.79,310.10,9.28,1.00,7.44,
2006-12-11 03:30,5.9,,,2864,1021.85,310.80,10.01,1.00,8.18,
2006-12-11 04:00,5.9,,,2965,1022.09,313.30,8.83,1.00,6.99,
2006-12-11 04:30,5.9,,,2862,1022.28,309.50,6.55,1.00,5.16,
2006-12-11 05:00,5.9,,,2965,1022.28,305.50,5.79,1.00,4.79,
2006-12-11 05:30,6.0,,,2874,1022.34,293.30,5.73,1.00,4.49,
2006-12-11 06:00,6.0,,,2964,1022.46,292.80,5.44,1.00,4.25,
2006-12-11 06:30,6.0,,,2888,1022.77,300.40,6.39,1.00,4.98,
2006-12-11 07:00,5.9,,,2963,1022.89,305.70,5.93,1.00,4.91,
2006-12-11 07:30,6.1,,,2886,1023.08,312.50,5.51,1.00,4.59,
2006-12-11 08:00,6.1,,,2962,1023.02,318.00,5.67,1.00,4.31,
2006-12-11 08:30,6.0,,,2904,1023.26,319.10,5.50,1.00,4.38,
2006-12-11 09:00,6.0,,,2965,1023.51,298.80,4.93,1.00,4.07,
2006-12-11 09:30,6.1,,,2903,1023.51,311.20,5.05,1.00,3.93,
2006-12-11 10:00,6.1,,,2965,1023.82,303.70,5.26,1.00,4.58,
2006-12-11 10:30,6.1,,,2903,1023.94,317.00,6.04,1.00,4.59,
2006-12-11 11:00,6.3,,,2960,1024.43,308.90,5.07,1.00,3.88,
2006-12-11 11:30,6.2,,,2904,1024.92,313.60,5.49,1.00,4.29,
2006-12-11 12:00,6.2,,,2960,1025.11,312.30,5.17,1.00,3.97,
2006-12-11 12:30,5.8,,,2855,1025.48,308.40,6.87,1.00,4.97,
2006-12-11 13:00,5.1,,,2812,1025.97,319.60,7.02,1.00,5.74,
2006-12-11 13:30,4.8,,,2591,1026.21,300.70,7.66,1.00,6.74,
2006-12-11 14:00,4.4,,,2324,1026.46,303.10,8.63,1.00,7.01,
2006-12-11 14:30,4.3,,,2441,1026.64,305.90,8.95,1.00,7.13,
2006-12-11 15:00,4.4,,,2719,1026.71,306.50,7.17,1.00,5.82,
2006-12-11 15:30,4.3,,,2537,1026.46,307.40,8.04,1.00,6.68,
2006-12-11 16:00,4.5,,,2857,1025.97,318.50,6.37,1.00,5.28,
2006-12-11 16:30,4.7,,,2692,1025.91,299.90,6.59,1.00,5.34,
2006-12-11 17:00,4.7,,,2812,1025.97,318.70,6.74,1.00,5.69,
2006-12-11 17:30,4.7,,,2751,1025.72,317.80,6.92,1.00,5.47,
2006-12-11 18:00,5.1,,,2518,1025.66,318.80,5.49,1.00,4.57,
2006-12-11 18:30,5.4,,,2301,1025.97,325.90,7.32,1.00,6.11,
2006-12-11 19:00,5.7,,,2577,1025.97,318.60,8.37,1.00,6.44,
2006-12-11 19:30,5.7,,,2834,1026.21,321.70,8.06,1.00,6.38,
2006-12-11 20:00,5.8,,,2962,1026.52,327.00,7.49,1.00,5.87,
2006-12-11 20:30,5.9,,,2363,1026.77,331.40,9.26,1.00,6.28,
2006-12-11 21:00,5.6,,,2965,1026.95,329.20,8.87,1.00,7.62,
2006-12-11 21:30,5.5,,,2856,1027.26,332.20,8.82,1.00,6.88,
2006-12-11 22:00,5.4,,,2965,1027.75,331.90,9.84,1.00,6.59,
2006-12-11 22:30,5.4,,,2863,1028.31,332.60,9.20,1.00,7.06,
2006-12-11 23:00,5.4,,,2965,1028.80,332.00,7.89,1.00,6.78,
2006-12-11 23:30,5.2,,,2865,1029.11,332.90,8.41,1.00,6.72,
2006-12-12 00:00,5.1,,,2965,1029.60,324.90,6.80,1.00,5.59,
2006-12-12 00:30,4.9,,,2867,1029.85,323.00,6.68,1.00,5.38,
2006-12-12 01:00,4.9,,,2965,1030.34,323.70,7.25,1.00,5.72,
2006-12-12 01:30,4.9,,,2881,1030.71,323.40,6.82,1.00,5.43,
2006-12-12 02:00,5.0,,,2965,1031.08,330.20,8.47,1.00,5.94,
2006-12-12 02:30,5.1,,,2883,1031.14,351.66,9.16,1.00,7.20,
2006-12-12 03:00,4.8,,,2965,1031.39,331.90,7.54,1.00,5.56,
2006-12-12 03:30,4.8,,,2870,1031.51,342.91,7.34,1.00,5.52,
2006-12-12 04:00,4.5,,,2965,1031.88,354.45,9.95,1.00,7.85,
2006-12-12 04:30,4.2,,,2858,1031.82,356.52,9.73,1.00,8.32,
2006-12-12 05:00,4.2,,,2965,1032.13,351.26,9.42,1.00,7.50,
2006-12-12 05:30,3.8,,,2862,1032.37,357.46,8.36,1.00,6.76,
2006-12-12 06:00,3.7,,,2965,1032.62,355.14,9.03,1.00,6.98,
2006-12-12 06:30,3.3,,,2864,1033.05,2.48,9.34,1.00,7.78,
2006-12-12 07:00,3.1,,,2965,1033.42,347.08,8.72,1.00,7.12,
2006-12-12 07:30,3.0,,,2867,1033.73,353.63,10.05,1.00,8.25,
2006-12-12 08:00,3.0,,,2965,1033.73,12.57,10.75,1.00,8.56,
2006-12-12 08:30,2.6,,,2821,1033.79,358.37,10.18,1.00,8.34,
2006-12-12 09:00,2.3,,,2965,1033.98,2.73,10.90,1.00,8.79,
2006-12-12 09:30,2.2,,,2831,1034.10,354.23,11.14,1.00,9.17,
2006-12-12 10:00,1.9,,,2965,1034.41,5.10,11.62,1.00,9.29,
2006-12-12 10:30,1.6,,,2829,1035.03,7.63,12.31,1.00,10.26,
2006-12-12 11:00,1.3,,,2965,1035.46,5.17,12.29,1.00,10.38,
2006-12-12 11:30,1.5,,,2822,1035.95,19.48,12.70,1.00,10.31,
2006-12-12 12:00,1.3,,,2965,1036.45,28.62,11.19,1.00,9.47,
2006-12-12 12:30,0.9,,,2778,1037.31,30.16,10.31,1.00,8.38,
2006-12-12 13:00,0.6,,,2966,1037.43,10.92,12.40,1.00,10.06,
2006-12-12 13:30,0.6,,,2831,1037.74,13.23,11.99,1.00,9.63,
2006-12-12 14:00,0.0,,,2950,1038.18,18.57,9.67,1.00,7.06,
2006-12-12 14:30,-0.1,,,2757,1038.42,28.19,8.28,1.00,6.43,
2006-12-12 15:00,-0.1,,,2861,1038.24,24.72,9.71,1.00,7.48,
2006-12-12 15:30,-0.1,,,2617,1037.74,32.26,10.55,1.00,8.53,
2006-12-12 16:00,0.1,,,2701,1037.56,22.33,9.83,1.00,7.88,
2006-12-12 16:30,0.3,,,2718,1037.56,36.32,8.74,1.00,6.61,
2006-12-12 17:00,0.2,,,2966,1037.13,26.70,9.43,1.00,7.17,
2006-12-12 17:30,0.7,,,2476,1036.82,30.05,8.14,1.00,6.68,
2006-12-12 18:00,1.0,,,2722,1036.69,29.62,6.77,1.00,5.37,
2006-12-12 18:30,1.1,,,2844,1037.06,38.61,6.22,1.00,4.82,
2006-12-12 19:00,1.1,,,2966,1037.31,22.45,5.31,1.00,4.08,
2006-12-12 19:30,1.3,,,2941,1037.25,62.90,4.25,1.00,3.25,
2006-12-12 20:00,1.5,,,2122,1037.31,46.67,4.45,1.00,2.69,
2006-12-12 20:30,1.1,,,2624,1037.43,74.20,4.92,1.00,3.12,
2006-12-12 21:00,0.9,,,2965,1037.68,54.30,4.13,1.00,2.49,
2006-12-12 21:30,1.0,,,2939,1038.05,59.40,2.89,1.00,2.03,
2006-12-12 22:00,1.0,,,2965,1037.87,105.90,3.38,1.00,1.87,
2006-12-12 22:30,1.1,,,2927,1037.99,122.40,2.87,1.00,2.02,
2006-12-12 23:00,1.1,,,2965,1038.11,126.70,3.23,1.00,2.06,
2006-12-12 23:30,1.2,,,2923,1038.18,101.80,2.72,1.00,1.27,
2006-12-13 00:00,1.2,,,2965,1037.93,135.20,2.10,1.00,1.01,
2006-12-13 00:30,1.5,,,2942,1037.74,140.00,2.69,1.00,1.84,
2006-12-13 01:00,1.5,,,2965,1037.56,144.60,2.25,1.00,1.57,
2006-12-13 01:30,1.7,,,2941,1037.62,178.40,3.16,1.00,1.97,
2006-12-13 02:00,1.7,,,2965,1037.13,170.80,4.09,1.00,2.41,
2006-12-13 02:30,1.9,,,2946,1036.94,183.60,4.63,1.00,2.94,
2006-12-13 03:00,1.9,,,2965,1036.51,173.80,4.03,1.00,2.55,
2006-12-13 03:30,1.9,,,2931,1036.01,171.40,4.37,1.00,2.89,
2006-12-13 04:00,2.1,,,2965,1035.89,180.00,4.35,1.00,3.12,
2006-12-13 04:30,2.2,,,2940,1035.64,188.40,5.16,1.00,3.86,
2006-12-13 05:00,2.3,,,2965,1035.83,207.40,5.68,1.00,3.97,
2006-12-13 05:30,2.5,,,2937,1035.33,191.30,4.99,1.00,3.91,
2006-12-13 06:00,2.9,,,2965,1034.90,206.10,5.61,1.00,4.22,
2006-12-13 06:30,3.0,,,2929,1034.78,195.40,7.24,1.00,5.57,
2006-12-13 07:00,3.5,,,2965,1034.53,195.80,6.49,1.00,5.03,
2006-12-13 07:30,3.6,,,2930,1034.04,198.20,7.36,1.00,5.65,
2006-12-13 08:00,4.1,,,2965,1033.79,205.30,7.99,1.00,6.06,
2006-12-13 08:30,4.3,,,2908,1033.36,217.10,8.90,1.00,6.57,
2006-12-13 09:00,4.5,,,2965,1032.68,205.20,7.91,1.00,5.90,
2006-12-13 09:30,4.8,,,2912,1032.74,215.80,7.84,1.00,6.56,
2006-12-13 10:00,5.1,,,2965,1032.37,204.50,9.18,1.00,7.02,
2006-12-13 10:30,5.5,,,2874,1032.25,214.80,7.96,1.00,6.53,
2006-12-13 11:00,5.7,,,2965,1031.94,206.40,8.99,1.00,7.10,
2006-12-13 11:30,5.8,,,2899,1031.63,199.00,9.27,1.00,7.48,
2006-12-13 12:00,6.0,,,2965,1030.83,200.20,9.43,1.00,7.91,
2006-12-13 12:30,6.1,,,2909,1030.96,212.20,10.40,1.00,8.18,
2006-12-13 13:00,6.2,,,2965,1030.96,204.60,9.78,1.00,7.70,
2006-12-13 13:30,6.3,,,2910,1030.40,197.30,10.77,1.00,8.59,
2006-12-13 14:00,6.4,,,2960,1030.22,196.20,11.46,1.00,9.27,
2006-12-13 14:30,6.6,,,2883,1029.91,201.30,11.53,1.00,8.97,
2006-12-13 15:00,6.7,,,2930,1029.35,198.40,11.97,1.00,9.96,
2006-12-13 15:30,6.9,,,2892,1028.43,191.70,12.10,1.00,10.09,
2006-12-13 16:00,7.0,,,2956,1027.57,191.20,12.45,1.00,9.73,
2006-12-13 16:30,7.2,,,2831,1026.40,192.60,13.07,1.00,10.52,
2006-12-13 17:00,7.4,,,2944,1025.84,190.70,11.86,1.00,9.59,
2006-12-13 17:30,7.7,,,2836,1025.11,177.70,11.06,1.00,9.53,
2006-12-13 18:00,8.0,,,2933,1024.74,186.40,11.40,1.00,9.04,
2006-12-13 18:30,8.2,,,2803,1024.06,180.50,11.60,1.00,9.39,
2006-12-13 19:00,8.3,,,2913,1023.14,176.30,11.73,1.00,9.80,
2006-12-13 19:30,8.4,,,2816,1023.02,171.50,11.36,1.00,9.32,
2006-12-13 20:00,8.6,,,2800,1022.59,173.40,10.54,1.00,8.46,
2006-12-13 20:30,8.5,,,2050,1021.85,160.40,11.29,1.00,9.49,
2006-12-13 21:00,8.7,,,1807,1020.99,165.00,12.29,1.00,10.20,
2006-12-13 21:30,8.8,,,2372,1020.37,154.00,12.49,1.00,10.48,
2006-12-13 22:00,9.0,,,2530,1019.70,159.40,11.99,1.00,10.02,
2006-12-13 22:30,9.4,,,1992,1018.53,163.30,13.26,1.00,11.13,
2006-12-13 23:00,9.5,,,2026,1017.86,165.80,13.62,1.00,11.52,
2006-12-13 23:30,9.5,,,2506,1017.98,176.10,12.54,1.00,10.16,
2006-12-14 00:00,9.5,,,2323,1017.37,171.30,13.12,1.00,10.50,
2006-12-14 00:30,9.7,,,2136,1017.00,177.40,12.88,1.00,9.92,
2006-12-14 01:00,9.7,,,2043,1016.45,181.10,9.89,1.00,8.36,
2006-12-14 01:30,9.9,,,2280,1016.02,196.10,10.02,1.00,8.12,
2006-12-14 02:00,9.9,,,2397,1015.96,213.90,9.96,1.00,7.73,
2006-12-14 02:30,9.9,,,2129,1015.89,234.80,7.99,1.00,6.58,
2006-12-14 03:00,9.8,,,2156,1015.83,246.70,8.92,1.00,6.98,
2006-12-14 03:30,9.6,,,2136,1015.40,249.70,8.00,1.00,6.23,
2006-12-14 04:00,9.4,,,2261,1015.28,244.80,6.93,1.00,5.38,
2006-12-14 04:30,9.3,,,1514,1015.04,218.80,5.83,1.00,4.96,
2006-12-14 05:00,9.1,,, 549,1014.42,218.50,6.84,1.00,5.89,
2006-12-14 05:30,9.1,,,1888,1014.24,221.30,5.91,1.00,5.03,
2006-12-14 06:00,8.9,,,2315,1014.12,256.70,6.26,1.00,5.13,